CAPE
0 0 0 0 1 4 0 0 0 0 0 0 0 0 0 0 0 0 0 0 0 12 22 34 28 23 51 40 4 3 0 4 3 12 2 2 0 0 0 3 1 2 0
0 0 0 0 0 0 0 0 0 0 0 0 0 0 0 0 0 0 0 0 0 19 17 17 26 30 14 13 3 2 2 25 9 2 3 2 2 2 3 2 3 3 3
0 0 0 0 0 0 0 0 0 0 0 0 0 0 0 0 0 0 0 2 0 13 2 2 7 4 10 17 6 3 12 15 2 3 2 4 3 3 2 2 2 1 3
0 0 0 0 0 0 0 0 0 0 0 0 0 0 0 0 0 7 4 2 3 16 24 11 19 3 15 9 11 7 11 10 1 1 3 3 3 3 2 2 3 4 4
0 0 0 0 0 0 0 0 0 0 0 5 4 8 7 7 0 0 0 0 11 18 19 23 17 27 21 8 1 0 0 0 1 3 4 2 3 3 2 1 1 1 1
0 0 0 0 1 0 0 0 0 0 7 31 24 13 11 0 0 0 0 0 0 16 14 13 4 0 8 5 3 0 0 5 0 1 2 2 3 2 2 2 2 2 1
0 0 0 0 4 0 0 0 0 0 5 15 15 6 0 0 0 0 0 0 0 1 12 9 8 0 0 2 3 1 0 0 0 0 0 1 2 1 1 2 2 2 0
0 0 1 9 1 0 0 0 0 0 1 0 0 0 0 0 0 0 0 0 0 1 7 17 1 1 0 1 6 0 0 0 0 0 1 0 2 0 0 0 0 0 1
19 10 13 17 17 6 0 0 0 0 0 0 0 0 0 0 0 0 0 2 2 0 0 1 0 0 0 0 0 2 0 0 0 0 0 0 0 0 0 0 0 0 1
15 13 11 27 40 16 0 0 0 3 1 0 0 0 0 0 0 0 11 13 4 1 0 0 0 0 0 0 0 0 0 0 0 0 0 0 0 0 0 0 0 0 0
13 10 27 43 48 6 0 0 0 13 10 1 0 0 0 0 0 2 8 8 3 2 0 0 0 0 0 0 1 0 0 1 0 1 1 1 2 0 0 0 0 0 0
5 18 54 43 42 0 0 0 0 13 9 0 0 0 0 0 0 0 0 1 0 2 0 0 0 0 0 0 0 0 0 1 2 2 2 2 1 0 0 0 0 0 0
0 38 56 31 16 0 0 0 0 0 0 0 0 0 0 0 0 0 0 0 0 0 0 0 0 0 0 0 0 0 1 2 2 2 1 1 0 0 0 0 0 0 0
0 17 28 39 19 0 0 0 0 3 1 0 0 0 0 0 0 0 0 0 0 0 0 0 0 0 0 0 0 1 1 1 2 2 0 1 0 0 0 0 0 0 0
0 4 37 28 26 17 0 0 0 2 1 0 0 0 0 0 0 0 0 0 0 0 0 1 0 0 0 1 3 1 1 1 1 1 0 0 0 0 0 0 0 0 0
0 7 55 69 47 26 0 0 0 0 0 0 1 0 0 0 0 0 0 0 0 0 1 0 0 0 1 2 1 1 1 0 0 0 0 0 0 0 0 0 0 0 0
0 0 26 100 81 33 0 0 0 0 0 0 0 0 0 0 0 0 0 0 0 0 0 1 0 1 1 1 1 1 1 0 0 0 0 0 0 0 0 0 0 0 0
0 0 21 120 116 60 0 0 0 0 1 0 0 0 0 0 0 0 0 0 0 0 0 0 0 0 1 1 1 1 0 1 0 0 0 0 0 0 0 0 0 0 0
0 0 5 87 106 76 0 0 0 0 0 0 0 0 0 0 0 0 0 0 0 0 0 0 0 0 0 0 0 0 0 0 0 0 0 0 0 0 0 0 0 0 0
0 0 0 16 44 55 0 0 0 0 0 0 0 0 0 0 0 0 0 0 0 0 0 0 0 0 0 0 0 0 1 1 0 1 0 0 0 0 0 0 0 0 0
0 0 0 0 2 19 4 0 0 0 0 0 0 0 0 0 0 0 0 0 0 0 0 0 0 0 1 1 0 0 0 0 0 0 0 0 0 0 0 0 0 0 0
0 0 0 0 0 0 0 0 0 0 0 0 0 0 0 0 0 0 0 0 0 0 0 0 0 0 0 0 0 0 0 0 0 0 0 0 0 0 0 0 0 0 0
0 0 0 0 0 0 0 0 0 0 0 0 0 0 0 0 0 0 0 0 0 0 0 0 0 0 0 0 0 0 0 0 0 0 0 0 0 0 0 0 0 0 0
0 0 0 0 0 0 0 0 0 0 0 0 0 0 0 0 0 0 0 0 0 0 0 0 0 0 0 0 0 0 0 0 0 0 0 0 0 0 0 0 0 0 0
0 0 0 0 0 0 0 0 0 0 0 0 0 0 0 0 0 0 0 0 0 0 0 0 0 0 0 0 0 0 0 0 0 0 0 0 0 0 0 0 0 0 0
0 0 0 0 0 0 0 0 0 0 0 0 0 0 0 0 0 0 0 0 0 0 0 0 0 0 0 0 0 0 0 0 0 0 0 0 0 0 0 0 0 0 0
CIN
0 0 0 0 -499 -462 -45 0 0 0 0 0 0 0 0 0 0 0 0 0 0 -68 -72 -78 -79 -92 -81 -92 -110 -116 0 -44 -36 -34 0 0 0 0 -5 -28 0 0 0
0 0 0 0 -27 0 0 0 0 0 0 0 0 0 0 0 0 0 0 0 0 -65 -71 -74 -58 -58 -81 -100 -112 -113 -90 -69 -68 -41 0 0 0 0 0 0 0 0 0
0 0 0 0 0 0 0 0 0 0 0 0 0 0 0 0 0 0 0 -67 0 -62 -62 -27 -65 -59 -66 -89 -113 -104 -99 -96 -39 -73 -70 0 0 0 0 0 0 0 0
0 0 0 0 0 0 0 0 0 0 0 0 0 0 0 0 0 -44 -20 -66 -40 -41 -36 -26 -30 -41 -62 -100 -109 -101 -101 -101 0 0 0 0 0 0 0 0 0 0 0
0 0 0 0 0 0 0 0 0 0 0 -42 -36 -39 -41 -35 0 0 0 -2 -50 -44 -21 -13 -8 -18 -50 -94 -53 0 0 0 0 0 0 0 0 0 0 0 0 0 0
0 0 0 0 -52 0 0 0 0 0 -43 -43 -54 -46 -44 0 0 0 0 0 0 -48 -36 -13 -14 0 -44 -73 -46 0 0 -134 0 0 0 0 0 0 0 0 0 0 0
0 0 0 -89 -330 0 0 0 0 0 -54 -60 -62 -60 -7 0 0 0 0 0 0 -41 -34 -21 -17 -14 0 -50 -101 -69 0 0 0 0 0 0 0 0 0 0 0 0 0
0 0 -122 -346 -323 0 0 0 0 0 -43 0 -8 0 0 0 0 0 0 0 0 0 -26 -21 -19 0 0 -19 -91 0 0 0 0 0 -1 -2 0 0 0 0 0 0 0
-281 -322 -317 -312 -337 -343 0 0 0 0 -22 0 0 0 0 0 0 0 0 -17 -16 0 0 -2 0 0 0 0 -8 0 0 0 0 0 0 0 0 0 0 0 0 0 0
-296 -297 -290 -291 -276 -266 0 0 0 -122 -31 0 0 0 0 0 0 -3 -11 -17 -12 -15 0 0 0 0 0 0 0 0 0 0 0 0 0 0 0 0 0 0 0 0 0
-305 -284 -250 -260 -247 -265 0 0 0 -94 -99 -90 0 0 0 0 -19 -29 -18 -12 -15 -16 -9 0 0 0 0 0 0 0 0 0 0 0 0 0 0 0 0 0 0 0 0
-295 -246 -204 -253 -237 0 0 0 0 -71 -73 0 0 0 0 0 0 0 0 -6 -5 -19 -2 0 0 0 0 0 0 0 0 0 0 0 0 0 0 0 0 0 0 0 0
0 -227 -200 -285 -278 0 0 0 0 -32 -2 0 0 0 0 0 0 0 0 0 0 -1 0 0 0 0 0 0 0 0 0 0 0 0 0 0 0 0 0 0 0 0 0
0 -256 -247 -255 -268 0 0 0 0 -35 -8 0 0 0 0 0 0 0 0 0 0 0 0 0 0 0 0 0 0 0 0 0 0 0 0 0 0 0 0 0 0 0 0
0 -295 -220 -257 -252 -238 0 0 0 -32 -25 -11 0 0 0 0 0 0 0 0 0 0 0 0 0 0 0 0 0 0 0 0 0 0 0 0 0 0 0 0 0 0 0
0 -311 -226 -242 -284 -275 0 0 0 0 0 0 -14 0 0 0 0 0 0 0 0 0 0 0 0 0 0 0 0 0 0 0 0 0 0 0 0 0 0 0 0 0 0
0 -12 -302 -271 -297 -321 0 0 0 0 0 0 0 0 0 0 0 0 0 0 0 0 0 0 0 0 0 0 -1 0 0 0 0 0 0 0 0 0 0 0 0 0 0
0 0 -318 -284 -299 -334 0 0 0 0 -36 0 0 0 0 0 0 0 0 0 0 0 0 -8 0 -4 0 0 0 0 -2 0 0 0 0 0 0 0 0 0 0 0 0
0 0 -226 -336 -344 -353 0 0 0 0 0 0 0 0 0 0 0 0 0 0 0 0 0 0 0 0 0 -8 -3 -2 0 0 0 0 0 0 0 0 0 0 0 0 0
0 0 0 -337 -399 -393 0 0 0 0 0 0 0 0 0 0 0 0 0 0 0 0 0 0 0 0 -1 0 0 0 0 0 0 0 0 0 0 0 0 0 0 0 0
0 0 0 0 -51 -421 -140 0 0 0 0 0 0 0 0 0 0 0 0 0 0 0 0 0 0 0 0 0 0 0 0 0 0 0 0 0 0 0 0 0 0 0 0
0 0 0 0 0 0 0 0 0 0 0 0 0 0 0 0 0 0 0 0 0 0 0 0 0 0 0 0 0 0 0 0 0 0 0 0 0 0 0 0 0 0 0
0 0 0 0 0 0 0 0 0 0 0 0 0 0 0 0 0 0 0 0 0 0 0 0 0 0 0 0 0 0 0 0 0 0 0 0 0 0 0 0 0 0 0
0 0 0 0 0 0 0 0 0 0 0 0 0 0 0 0 0 0 0 0 0 0 0 0 0 0 0 0 0 0 0 0 0 0 0 0 0 0 0 0 0 0 0
0 0 0 0 0 0 0 0 0 0 0 0 0 0 0 0 0 0 0 0 0 0 0 0 0 0 0 0 0 0 0 0 0 0 0 0 0 0 0 0 0 0 0
0 0 0 0 0 0 0 0 0 0 0 0 0 0 0 0 0 0 0 0 0 0 0 0 0 0 0 0 0 0 0 0 0 0 0 0 0 0 0 0 0 0 0
Wind_Speed
8 8 8 8 8 9 9 9 9 9 10 11 11 10 10 11 12 13 13 11 10 9 9 9 13 10 9 7 6 11 24 21 17 15 13 13 12 7 8 9 8 8 11
8 8 9 9 9 9 9 9 9 9 10 11 11 10 10 11 12 12 12 12 12 11 11 10 9 8 12 5 6 20 3 19 15 10 13 10 4 4 3 5 13 10 10
8 8 9 9 9 9 10 9 9 9 10 11 12 10 10 11 11 12 12 14 13 13 13 9 11 12 14 10 5 8 7 9 10 8 9 15 8 2 3 5 10 9 11
9 9 9 9 9 9 9 9 9 9 11 13 12 10 11 12 13 13 13 14 14 13 13 10 10 9 7 4 7 1 5 3 5 5 3 6 9 7 4 8 8 12 13
10 9 10 10 10 10 10 9 8 8 10 12 11 10 11 13 14 14 14 14 14 15 15 15 14 9 7 12 7 3 4 4 6 8 4 1 2 3 5 10 11 11 9
11 11 11 11 11 11 11 11 9 8 9 11 10 8 11 12 13 13 14 14 15 16 15 16 18 19 8 3 5 5 5 6 14 12 8 4 7 5 6 11 12 14 7
12 12 11 11 12 12 12 12 10 8 9 11 9 8 11 13 14 14 14 15 14 15 16 16 18 21 27 26 25 4 17 13 11 11 7 9 6 8 9 11 10 5 5
13 12 12 12 12 13 13 14 12 9 9 9 9 9 11 13 15 16 16 16 17 17 17 17 16 16 20 15 3 13 15 15 13 11 5 6 7 7 7 12 10 6 6
15 13 14 14 13 13 14 14 13 11 8 7 9 9 15 13 9 16 17 17 18 19 17 18 20 12 25 16 9 5 7 11 9 3 4 5 7 7 10 12 10 10 11
15 16 15 14 13 13 14 14 12 12 9 7 10 14 16 15 11 14 16 18 19 18 15 16 17 21 25 20 8 8 8 6 6 4 4 5 6 10 11 15 12 9 14
15 17 15 14 14 14 13 12 13 12 10 7 12 13 13 12 10 10 14 18 18 10 11 19 21 25 23 22 17 11 8 7 6 6 5 8 12 11 13 19 20 17 20
16 17 15 15 15 15 15 15 14 14 16 20 13 14 13 10 11 11 11 12 15 4 8 10 23 24 23 21 14 20 16 7 6 9 11 13 17 12 24 31 28 14 16
15 17 16 17 17 18 17 15 15 16 18 21 19 14 11 12 14 12 12 12 10 8 20 20 17 17 20 23 24 23 17 7 9 11 12 12 31 29 24 28 27 28 21
17 16 16 18 19 19 20 20 19 20 18 19 23 24 17 13 15 13 13 13 8 4 5 15 20 17 19 22 23 9 7 14 35 38 19 24 24 30 34 31 29 28 28
19 15 18 19 20 20 20 21 20 19 22 25 27 27 20 20 18 20 21 21 4 7 6 4 9 13 23 25 21 18 36 37 38 36 15 16 30 35 32 28 26 27 25
21 24 25 24 23 22 22 22 18 17 21 22 23 27 25 22 22 24 23 26 27 26 16 16 16 19 21 13 9 28 32 33 35 35 33 36 36 34 33 31 27 27 27
27 29 29 27 25 24 23 23 22 20 22 21 23 26 26 25 24 25 26 28 29 28 29 28 26 25 27 25 20 24 33 34 36 36 35 34 34 33 30 29 28 26 23
31 30 29 28 26 24 23 24 24 23 23 23 21 24 25 25 25 26 26 28 27 24 26 28 29 30 31 32 32 32 32 33 33 34 34 33 31 29 27 28 25 25 25
33 32 30 29 26 25 24 25 25 24 22 23 23 22 24 25 25 26 26 26 26 26 25 26 27 28 29 30 31 31 31 33 34 34 33 32 31 28 29 25 18 14 12
32 30 29 30 27 26 26 26 26 24 23 24 24 24 24 25 25 26 26 26 26 25 26 26 26 27 28 29 30 31 31 31 33 33 33 32 24 21 21 18 15 13 8
19 8 20 30 30 26 25 26 26 26 25 24 24 23 22 22 23 24 25 26 26 25 25 25 25 26 26 27 27 27 28 28 27 27 26 26 25 25 25 22 16 13 12
14 7 7 12 26 31 25 22 25 27 27 26 25 23 21 22 21 22 23 24 25 25 25 24 24 23 22 23 23 24 25 25 25 26 28 28 26 22 17 14 12 10 10
5 6 10 17 14 15 22 26 10 28 28 28 28 28 15 19 19 20 22 22 21 20 19 20 21 21 19 18 16 17 18 18 16 15 16 16 16 14 12 13 13 13 13
13 11 13 13 15 17 16 12 9 5 26 29 25 26 25 15 16 17 15 13 16 18 15 15 15 16 13 12 11 11 12 10 9 11 13 12 13 13 13 13 13 14 15
13 14 14 16 18 19 21 21 22 19 17 19 21 21 19 14 9 3 9 8 7 4 8 8 7 10 13 14 13 13 13 15 14 13 13 15 16 16 16 17 17 18 19
10 10 9 12 13 14 15 17 19 21 23 23 23 24 23 23 23 23 24 24 22 19 17 17 15 11 12 13 13 14 15 16 17 18 16 17 18 19 19 20 21 23 22
Wind_Direction
94 78 66 56 37 32 29 28 25 25 53 71 61 45 49 50 46 49 51 61 76 68 76 118 140 115 111 72 31 120 222 235 245 250 250 254 278 270 242 231 208 184 153
94 75 64 45 38 37 35 33 42 47 57 66 62 55 56 42 59 64 49 53 68 57 44 33 50 7 132 55 56 146 105 232 236 238 237 254 314 37 213 210 211 185 159
90 72 65 53 49 42 43 46 53 49 57 66 67 53 27 53 80 88 101 120 108 114 114 70 349 319 283 110 60 86 261 248 238 226 228 209 221 212 83 179 198 142 143
93 79 69 72 60 49 45 43 51 59 65 77 69 27 16 46 84 79 108 117 116 105 122 67 21 0 303 355 82 254 237 233 228 209 190 214 214 216 137 132 137 123 145
97 89 88 75 60 52 46 52 43 57 66 84 67 12 12 48 60 51 53 66 80 66 67 102 93 0 271 243 68 145 190 198 210 206 188 129 205 185 180 176 154 137 158
103 102 92 79 73 65 58 67 67 51 59 82 63 2 22 44 37 62 70 71 69 65 88 93 103 100 255 275 58 104 178 193 214 210 207 197 205 205 157 183 163 125 170
108 104 101 90 77 72 72 77 77 57 54 77 57 7 46 14 355 78 92 84 71 84 96 99 135 141 167 189 188 218 218 222 218 211 191 213 181 128 129 159 162 186 139
118 107 103 96 83 70 75 86 77 57 60 63 57 350 35 268 211 102 90 72 74 105 107 112 114 210 129 118 184 218 214 216 217 218 197 200 189 137 142 169 176 152 134
126 117 112 106 92 86 87 83 73 70 49 12 67 331 276 298 324 86 87 83 81 98 144 129 104 213 159 115 130 185 209 218 221 182 190 136 134 148 164 162 163 149 195
127 126 115 109 101 101 97 90 72 77 52 354 307 277 253 258 303 66 82 88 88 64 173 164 157 140 123 110 118 167 187 180 157 170 153 132 145 159 178 194 175 149 202
124 122 111 107 105 108 96 79 76 68 54 0 268 255 253 268 308 5 56 94 87 358 230 154 145 115 87 99 105 124 141 159 141 131 161 160 135 151 179 196 200 204 204
123 118 106 103 103 106 98 95 87 85 101 214 245 237 245 293 283 326 1 14 78 249 344 18 103 88 86 88 89 108 113 146 165 126 129 138 125 170 196 188 194 222 218
121 119 109 106 107 110 103 97 91 102 117 209 224 242 266 270 260 299 346 23 349 348 113 96 76 70 76 90 100 107 105 133 159 131 131 173 188 189 195 194 197 191 212
125 118 111 113 113 110 109 109 114 134 118 225 211 201 229 259 233 268 33 32 344 335 41 82 93 74 77 95 99 107 133 174 136 141 188 191 194 185 170 186 192 198 200
131 118 123 122 122 117 120 134 137 148 158 173 185 174 118 172 179 139 118 95 352 62 69 71 71 74 95 122 185 103 136 157 153 165 135 128 135 161 183 196 203 200 210
134 139 146 141 139 140 138 145 153 151 176 193 190 168 149 169 153 140 146 136 115 114 92 90 90 97 102 115 194 176 174 145 153 172 155 164 172 176 174 181 201 205 190
149 156 157 155 150 145 146 146 145 148 153 174 176 177 169 159 151 141 136 130 135 146 143 137 123 122 128 122 116 126 161 166 167 175 179 181 178 173 167 175 185 181 179
164 159 158 158 153 146 145 149 153 153 152 163 180 173 170 159 146 136 127 126 140 163 162 162 164 160 159 160 163 168 175 182 181 180 183 179 173 171 172 183 182 192 201
170 173 171 163 154 152 150 158 165 164 169 167 166 173 170 166 158 148 139 151 148 155 164 166 169 171 175 176 177 176 180 182 185 185 189 190 193 183 197 188 175 174 179
194 164 164 169 161 160 163 170 176 177 178 173 161 152 144 154 159 159 162 165 165 166 167 165 166 173 179 183 185 189 195 201 197 196 199 201 187 176 184 186 189 195 206
238 237 149 209 177 163 163 172 181 187 186 172 164 153 142 143 150 157 164 172 175 173 171 171 168 168 167 168 171 174 179 181 181 184 185 189 192 199 203 205 206 213 222
242 232 240 148 221 196 168 160 176 191 197 194 185 166 151 161 159 163 170 177 181 184 184 178 176 172 171 172 175 178 183 186 187 192 198 202 202 203 206 212 223 241 260
208 236 250 254 261 261 248 239 184 199 203 206 212 211 149 166 168 172 179 182 179 178 175 176 181 183 181 180 179 182 186 191 193 194 199 204 210 218 231 238 252 260 271
250 253 258 262 263 264 268 276 280 154 190 217 245 244 232 164 172 177 176 173 180 185 181 184 188 191 190 193 197 201 206 214 225 221 220 229 234 243 248 251 258 261 270
258 259 261 266 266 267 268 269 267 274 280 277 275 277 285 296 303 266 302 302 296 271 202 211 225 213 211 214 220 222 224 224 231 243 253 247 246 250 254 259 268 281 283
276 274 279 279 281 284 286 285 282 279 279 281 283 286 289 290 291 292 292 292 295 296 296 295 289 269 270 270 245 235 236 236 236 237 252 263 261 259 267 268 274 280 279